Wind_Speed
5 5 5 5 5 5 5 5 5 4 4 4 3 3 3 2 2 3 3 3 2 2 2 1 1 1 1 1 1 1 1 1 1 1 1 1 1 1 1 2 2 2
8 7 7 7 7 7 7 7 7 6 6 6 5 4 4 4 4 5 5 5 4 3 3 3 3 2 3 3 2 1 1 2 2 1 1 1 0 1 1 1 2 2
10 9 9 9 9 9 8 8 8 7 7 7 6 5 5 4 5 5 6 6 5 5 4 4 4 4 3 4 4 3 3 3 3 3 3 2 2 2 2 2 2 2
11 11 11 11 11 11 10 10 9 9 8 8 7 7 6 6 6 6 6 6 6 6 5 5 5 5 4 5 5 5 4 4 4 4 4 4 4 3 3 3 3 4
12 12 12 13 13 12 12 11 11 11 10 9 8 8 8 7 7 8 8 7 7 7 7 7 6 6 6 6 6 6 6 5 5 5 5 5 5 4 4 4 5 5
14 14 13 13 14 14 14 13 12 12 12 11 10 9 9 9 8 9 9 8 8 8 8 8 7 7 8 8 8 8 7 7 6 6 6 6 6 6 5 6 6 6
15 15 15 15 15 15 15 15 14 14 13 13 12 12 11 11 10 10 10 10 10 10 10 9 9 9 9 9 9 9 9 8 8 8 8 8 8 8 7 8 8 8
17 17 17 16 17 17 17 17 16 15 15 14 14 14 14 14 13 12 12 12 12 12 12 11 11 11 11 11 11 11 11 10 10 10 10 10 10 10 10 10 10 10
16 17 18 17 17 18 18 19 19 18 17 16 15 16 16 16 15 14 14 13 13 14 14 13 13 13 13 13 13 13 13 12 12 12 12 12 12 12 11 11 11 11
14 15 16 16 16 16 17 19 19 19 18 18 17 17 18 18 17 16 16 16 15 15 15 15 15 15 15 15 14 15 15 15 14 14 14 14 14 14 14 13 13 13
16 16 15 15 16 16 17 18 18 17 17 18 17 18 18 19 19 18 18 17 17 17 16 16 16 16 16 16 17 17 17 17 16 15 15 16 16 16 17 16 15 15
17 18 17 17 18 18 19 19 18 17 17 17 18 18 17 17 18 19 19 19 19 19 18 18 17 16 17 17 18 18 19 18 17 17 17 17 17 18 18 18 19 18
20 20 19 19 19 20 21 21 20 20 20 21 21 20 19 17 17 18 19 20 21 21 21 20 17 17 18 19 19 20 20 19 18 18 19 19 19 20 19 19 20 20
22 21 20 19 20 21 22 22 22 23 23 24 24 23 22 21 19 19 20 21 22 22 21 19 18 18 19 20 21 22 22 21 20 20 20 21 21 21 20 21 21 21
22 21 21 20 20 21 22 23 24 24 25 26 26 25 24 24 24 23 22 22 23 23 20 17 17 20 21 22 22 22 22 23 23 22 22 22 22 22 23 23 22 22
22 22 23 21 21 23 23 24 24 25 26 27 27 26 25 26 28 28 26 25 24 23 22 20 19 21 23 25 25 24 23 24 25 25 25 25 25 25 24 24 24 24
23 23 24 23 23 24 24 25 25 25 27 28 29 28 27 27 30 31 31 29 27 25 25 24 23 23 25 26 27 26 25 25 26 27 27 27 27 26 26 26 26 26
25 25 25 25 25 25 25 26 27 27 29 30 30 30 30 30 31 32 32 31 29 29 29 28 28 27 26 27 27 27 27 27 28 29 29 30 29 28 29 30 29 28
27 27 27 27 27 28 28 27 29 30 32 34 33 31 31 33 34 35 35 32 31 31 32 31 31 30 30 29 28 28 29 29 29 30 31 31 30 30 32 32 31 30
28 28 28 29 29 30 30 29 30 31 32 33 33 31 31 34 37 38 37 35 33 33 33 33 33 33 32 31 30 29 29 30 31 31 32 32 32 32 33 33 33 33
31 31 29 28 29 29 28 28 29 29 30 30 29 28 30 32 35 38 39 38 36 34 33 34 35 34 33 32 32 32 31 31 32 32 31 32 32 33 33 34 35 35
33 34 29 23 23 24 24 25 25 25 27 27 25 24 27 28 30 33 37 39 38 36 36 37 37 36 34 33 34 33 33 33 33 33 32 32 33 34 35 36 36 37
31 33 30 24 21 20 19 20 21 21 23 24 22 20 21 24 27 31 36 40 39 37 37 38 39 38 37 36 35 34 34 34 34 33 32 33 34 36 38 38 38 38
23 25 26 24 22 20 18 19 20 20 21 22 21 20 19 19 20 23 29 35 38 40 40 41 40 38 36 37 37 37 37 37 36 35 36 37 38 38 40 41 40 41
15 16 18 20 19 18 17 18 18 19 20 20 19 18 17 15 14 16 19 21 24 30 35 37 36 35 36 38 38 38 39 38 37 37 37 39 40 40 41 42 43 45
14 15 16 17 16 16 16 15 15 18 21 22 19 19 20 20 19 21 23 21 18 18 19 20 22 25 29 34 37 39 40 40 39 38 37 37 38 39 40 42 44 45
Wind_Direction
224 223 218 215 214 211 209 212 219 227 234 238 239 241 249 261 276 279 275 271 260 253 257 258 247 264 284 299 8 55 25 29 43 59 81 93 93 130 162 163 192 210
233 231 227 225 226 226 228 229 231 235 240 249 254 256 259 264 272 277 280 281 279 276 279 280 281 281 279 286 299 314 327 333 322 308 307 324 321 250 229 215 220 233
236 235 234 233 233 234 237 239 242 244 243 248 255 259 263 268 272 273 274 276 277 276 274 272 275 280 279 282 288 292 294 298 297 296 297 293 282 272 268 272 277 278
236 237 238 239 239 239 242 244 246 249 251 256 261 265 268 270 273 273 271 271 272 272 269 264 261 261 260 263 268 272 274 280 285 290 292 288 282 282 290 303 312 309
238 238 239 242 244 244 247 250 251 252 255 259 262 266 270 271 273 274 273 273 272 269 266 262 258 256 257 255 253 254 257 260 265 272 279 281 281 285 294 309 317 316
239 239 240 243 246 247 248 250 253 256 259 260 259 260 261 262 263 264 266 267 266 265 263 262 262 263 263 262 258 256 256 257 259 264 268 273 279 285 294 301 302 302
242 241 243 245 247 250 252 252 252 254 258 261 263 264 264 264 261 258 259 259 259 259 260 260 262 262 262 262 261 260 261 263 264 265 267 270 275 278 280 284 286 288
241 243 244 247 250 252 254 256 256 256 258 261 265 266 267 267 264 262 261 261 260 261 261 261 262 263 263 263 262 262 260 261 262 264 266 269 273 274 274 276 279 281
244 245 247 250 253 256 257 258 259 259 260 262 263 265 266 267 267 266 266 265 264 265 266 265 263 263 264 263 264 266 264 262 261 262 264 264 267 269 269 271 274 276
254 250 254 256 258 265 269 268 266 266 266 264 263 264 265 266 267 266 266 266 265 264 266 267 264 264 266 266 266 267 267 264 262 264 267 267 266 268 268 268 269 271
255 253 259 262 259 265 271 270 268 270 276 276 273 271 269 267 266 265 265 266 266 264 264 264 264 265 267 268 267 266 265 266 267 268 269 270 272 272 273 272 270 269
254 255 257 258 257 260 263 264 266 268 273 276 275 274 272 271 270 268 266 264 263 263 262 262 264 268 269 269 267 265 262 262 264 264 263 267 270 270 272 275 275 274
247 251 252 253 256 259 260 265 270 269 268 270 271 272 273 273 273 273 271 267 264 261 259 260 263 264 266 269 268 266 264 261 260 261 263 265 266 266 268 272 274 274
247 251 253 252 252 254 256 259 263 265 266 268 270 272 273 271 269 269 271 272 270 266 264 267 268 264 263 266 267 266 267 266 264 264 265 266 266 267 269 269 270 272
247 251 253 252 250 251 253 254 256 259 262 265 266 268 268 267 268 267 267 269 269 268 267 266 267 266 262 260 261 264 267 269 269 268 266 266 266 267 268 269 271 271
244 248 250 250 249 249 251 251 252 253 257 263 267 268 266 266 268 267 264 262 261 264 266 261 254 256 258 257 257 260 262 263 265 266 266 267 266 266 268 271 272 270
243 246 248 249 250 252 254 255 255 255 257 263 268 268 266 266 267 265 263 262 260 264 270 268 259 254 256 257 257 258 258 258 259 261 264 266 267 268 269 270 271 272
245 249 254 254 255 258 259 261 261 259 260 263 266 268 268 267 267 267 266 264 263 264 265 266 264 262 260 257 256 256 257 258 257 258 261 263 264 266 267 268 270 272
250 253 257 259 261 261 261 263 263 260 261 264 265 266 267 267 268 269 269 266 264 264 263 263 264 266 265 261 257 255 256 258 259 260 261 262 262 263 265 267 269 270
251 254 256 258 260 260 260 261 261 260 261 265 267 267 265 264 263 264 267 267 264 262 262 263 263 264 266 265 262 260 260 261 262 262 262 263 263 264 266 268 268 267
246 253 259 259 259 261 263 262 260 260 262 265 268 268 266 264 261 258 260 263 262 261 262 263 264 263 264 264 263 264 264 263 263 262 263 265 266 266 267 268 268 267
245 249 256 258 258 260 265 265 263 263 266 267 270 269 268 266 261 256 255 257 258 259 260 261 263 264 263 262 262 263 264 264 264 264 264 265 266 266 265 266 267 268
249 250 254 259 258 257 260 263 263 264 266 269 274 277 276 271 261 252 251 252 253 256 259 260 261 264 264 263 263 265 266 266 266 267 267 267 266 266 266 266 267 270
250 252 256 260 262 264 266 268 268 267 267 270 276 279 279 276 269 258 254 253 253 254 257 259 261 263 266 265 264 265 265 265 268 270 270 269 267 267 267 267 266 267
258 259 259 259 262 268 273 275 277 278 277 278 281 282 281 283 290 290 285 281 271 261 259 262 263 263 263 264 264 264 264 265 269 271 270 269 267 266 268 270 268 266
278 276 273 271 271 275 278 279 276 273 276 281 283 284 286 290 297 301 303 308 307 292 280 279 276 272 270 269 269 268 266 265 267 267 268 270 270 269 271 272 271 267
Height
5934 5935 5936 5936 5937 5937 5938 5938 5939 5939 5940 5940 5940 5941 5941 5941 5942 5942 5943 5943 5944 5944 5944 5944 5945 5945 5945 5945 5945 5946 5946 5946 5946 5946 5946 5946 5947 5948 5948 5948 5948 5949
5933 5934 5935 5936 5936 5937 5938 5938 5939 5939 5939 5940 5940 5940 5941 5941 5942 5942 5942 5943 5944 5944 5944 5944 5944 5944 5945 5945 5945 5945 5946 5946 5946 5946 5946 5946 5947 5948 5948 5948 5948 5949
5933 5934 5934 5935 5936 5937 5937 5938 5938 5939 5939 5939 5940 5940 5940 5941 5941 5942 5942 5942 5943 5943 5943 5944 5944 5944 5944 5945 5945 5945 5946 5946 5946 5947 5947 5947 5947 5948 5948 5948 5948 5948
5932 5933 5934 5935 5935 5936 5937 5937 5938 5939 5939 5939 5939 5940 5940 5940 5941 5941 5942 5942 5943 5943 5943 5943 5944 5944 5944 5944 5945 5945 5945 5946 5946 5947 5947 5947 5947 5947 5948 5948 5947 5947
5932 5933 5934 5935 5935 5936 5937 5937 5938 5938 5939 5939 5939 5940 5940 5940 5940 5941 5941 5942 5942 5943 5943 5943 5943 5944 5944 5944 5944 5945 5945 5946 5946 5946 5947 5947 5947 5947 5947 5947 5947 5947
5930 5931 5933 5934 5935 5935 5936 5936 5937 5937 5938 5938 5938 5938 5939 5939 5939 5940 5940 5941 5941 5942 5942 5942 5943 5943 5943 5944 5944 5945 5945 5945 5945 5946 5946 5946 5947 5946 5946 5946 5946 5946
5928 5929 5931 5932 5933 5933 5934 5935 5935 5936 5936 5937 5937 5937 5937 5938 5938 5939 5939 5940 5940 5941 5941 5941 5941 5942 5942 5943 5943 5944 5944 5945 5945 5945 5945 5945 5945 5945 5945 5945 5945 5945
5926 5927 5928 5929 5930 5931 5932 5932 5933 5933 5934 5935 5935 5936 5936 5937 5937 5938 5938 5939 5940 5940 5940 5940 5940 5941 5941 5941 5941 5942 5943 5943 5943 5943 5943 5943 5943 5944 5944 5944 5944 5944
5924 5925 5926 5927 5928 5928 5929 5930 5930 5931 5932 5933 5933 5934 5935 5935 5936 5936 5937 5938 5938 5938 5939 5939 5939 5939 5940 5940 5940 5940 5941 5941 5941 5941 5941 5942 5942 5942 5943 5943 5943 5943
5922 5923 5924 5925 5926 5927 5928 5928 5929 5930 5930 5931 5932 5933 5933 5933 5934 5935 5935 5936 5936 5936 5936 5937 5937 5938 5938 5938 5938 5938 5938 5939 5939 5939 5939 5940 5940 5940 5941 5940 5940 5940
5920 5921 5923 5923 5923 5923 5925 5926 5927 5928 5929 5929 5930 5931 5931 5932 5932 5933 5933 5933 5933 5933 5934 5934 5934 5935 5936 5936 5937 5937 5937 5937 5939 5940 5939 5939 5938 5939 5939 5938 5938 5938
5919 5920 5921 5921 5920 5921 5923 5923 5924 5926 5926 5927 5927 5927 5928 5929 5930 5931 5931 5931 5931 5931 5931 5931 5932 5933 5933 5934 5934 5934 5934 5935 5937 5937 5937 5937 5936 5936 5936 5937 5937 5936
5918 5919 5920 5919 5919 5920 5921 5921 5923 5924 5924 5924 5924 5925 5925 5926 5927 5928 5929 5929 5929 5929 5929 5929 5930 5931 5931 5932 5932 5931 5932 5933 5933 5933 5934 5935 5934 5934 5934 5934 5934 5934
5915 5916 5917 5917 5918 5918 5919 5919 5920 5921 5921 5921 5922 5923 5923 5923 5924 5924 5925 5925 5925 5926 5927 5929 5930 5929 5929 5929 5930 5929 5929 5930 5931 5931 5932 5932 5932 5932 5932 5931 5931 5931
5912 5913 5913 5915 5916 5916 5916 5917 5917 5918 5918 5918 5919 5920 5920 5921 5921 5921 5921 5921 5921 5923 5925 5927 5927 5924 5924 5926 5927 5927 5926 5927 5928 5929 5929 5929 5929 5929 5929 5929 5929 5929
5910 5910 5911 5912 5913 5913 5913 5914 5914 5915 5915 5915 5916 5917 5917 5918 5918 5917 5916 5917 5918 5919 5921 5923 5923 5921 5920 5922 5923 5924 5924 5924 5925 5925 5926 5926 5926 5926 5926 5926 5926 5926
5907 5907 5908 5908 5909 5910 5910 5911 5912 5913 5913 5913 5912 5913 5914 5914 5914 5913 5913 5913 5915 5917 5918 5919 5919 5918 5918 5918 5919 5920 5921 5921 5921 5921 5922 5922 5923 5923 5923 5922 5922 5922
5904 5904 5904 5905 5906 5907 5908 5908 5909 5909 5909 5909 5909 5910 5911 5911 5910 5910 5910 5910 5911 5913 5914 5914 5915 5915 5914 5914 5915 5916 5917 5918 5918 5919 5919 5919 5919 5919 5918 5918 5919 5919
5901 5901 5902 5903 5904 5904 5905 5905 5905 5905 5905 5905 5906 5907 5908 5907 5906 5905 5905 5907 5908 5908 5909 5910 5911 5912 5912 5911 5911 5912 5913 5914 5915 5916 5916 5916 5916 5915 5914 5914 5916 5917
5897 5898 5899 5900 5900 5900 5901 5901 5901 5901 5901 5901 5902 5903 5904 5903 5902 5901 5901 5902 5904 5904 5905 5906 5907 5907 5908 5908 5908 5909 5909 5910 5910 5912 5913 5913 5913 5912 5911 5911 5913 5913
5893 5894 5895 5896 5896 5895 5896 5896 5896 5897 5897 5897 5898 5899 5898 5898 5897 5897 5897 5897 5899 5900 5902 5902 5901 5902 5903 5904 5904 5905 5905 5905 5906 5907 5909 5909 5909 5908 5908 5908 5908 5907
5889 5890 5891 5892 5892 5892 5892 5892 5893 5894 5894 5894 5895 5895 5894 5894 5893 5893 5893 5893 5894 5896 5897 5896 5896 5897 5898 5899 5900 5900 5901 5901 5902 5903 5904 5905 5904 5904 5904 5903 5902 5902
5885 5886 5887 5888 5889 5890 5891 5892 5892 5893 5892 5891 5891 5891 5891 5890 5890 5889 5888 5888 5889 5891 5891 5891 5891 5892 5894 5895 5896 5896 5896 5896 5897 5898 5899 5900 5900 5899 5898 5898 5898 5898
5881 5882 5883 5883 5884 5886 5888 5889 5889 5889 5889 5888 5888 5887 5887 5886 5886 5885 5885 5884 5885 5886 5887 5887 5887 5888 5889 5889 5890 5891 5891 5891 5892 5893 5894 5894 5894 5894 5893 5892 5892 5892
5879 5880 5881 5881 5882 5882 5883 5884 5884 5884 5883 5884 5884 5884 5882 5882 5882 5882 5882 5881 5882 5882 5883 5883 5883 5885 5885 5883 5884 5885 5886 5886 5887 5887 5888 5888 5888 5889 5888 5887 5887 5886
5877 5878 5879 5879 5880 5881 5881 5881 5881 5881 5880 5880 5881 5881 5879 5878 5879 5880 5879 5879 5880 5880 5879 5879 5880 5880 5880 5879 5879 5880 5881 5882 5882 5882 5882 5882 5882 5883 5883 5882 5881 5881